Weather History for Bintulu, Malaysia

Change the Weather History Date:

Wednesday, May 15, 2013

  Actual Average Record
Temperature  
Mean Temperature 87 °F -  
Max Temperature 96 °F 89 °F - ()
Min Temperature 78 °F 74 °F - ()
Cooling Degree Days 22    
Growing Degree Days 37 (Base 50)    
Moisture  
Dew Point 79 °F    
Average Humidity 81    
Maximum Humidity 100    
Minimum Humidity 55    
Precipitation  
Precipitation 0.00 in 0.33 in - ()
Sea Level Pressure  
Sea Level Pressure 29.74 in    
Wind  
Wind Speed 2 mph ()    
Max Wind Speed 8 mph    
Max Gust Speed -    
Visibility 7.6 miles    
Events Thunderstorm    
T = Trace of Precipitation, MM = Missing Value Source: Averaged Metar Reports

Daily Weather History Graph

Daily Weather History Graph

Search for Another Location

Airport:

Trip Planner

Search our weather history database for the weather conditions in past years. The results will help you decide how hot, cold, wet, or windy it might be!

Date:

Astronomy

May. 15, 2013 Rise Set
Actual Time 6:16 AM MYT 6:32 PM MYT
Civil Twilight 5:54 AM MYT 6:54 PM MYT
Nautical Twilight 5:29 AM MYT 7:19 PM MYT
Astronomical Twilight 5:03 AM MYT 7:45 PM MYT
Moon 10:15 AM MYT (5/15) 10:45 PM MYT (5/15)
Length of Visible Light 12h 59m
Length of Day
12h 15m
Waxing Crescent, 22% of the Moon is Illuminated
May 15
Waxing Crescent
May 18
First Quarter
May 25
Full
Jun 1
Last Quarter
Jun 8
New

Hourly Weather History & Observations

Time (MYT) Temp. Heat Index Dew Point Humidity Pressure Visibility Wind Dir Wind Speed Gust Speed Precip Events Conditions
12:00 AM 78.8 °F - 78.8 °F 100% 29.77 in 6.2 mi Calm Calm - N/A   Mostly Cloudy
1:00 AM 78.8 °F - 77.0 °F 94% 29.77 in 6.2 mi Calm Calm - N/A   Mostly Cloudy
2:00 AM 78 °F - 78 °F 99% 29.76 in 11 mi ENE 1.2 mph - -   Scattered Clouds
2:00 AM 78.8 °F - 77.0 °F 94% 29.74 in 6.2 mi ENE 1.2 mph - N/A   Mostly Cloudy
3:00 AM 78.8 °F - 78.8 °F 100% 29.74 in 6.2 mi East 1.2 mph - N/A   Mostly Cloudy
4:00 AM 78.8 °F - 77.0 °F 94% 29.74 in 6.2 mi ESE 2.3 mph - N/A   Mostly Cloudy
5:00 AM 79 °F - 78 °F 95% 29.76 in 11 mi ESE 3.5 mph - -   Scattered Clouds
5:00 AM 78.8 °F - 77.0 °F 94% 29.74 in 6.2 mi ESE 3.5 mph - N/A   Mostly Cloudy
6:00 AM 78.8 °F - 77.0 °F 94% 29.77 in 6.2 mi East 2.3 mph - N/A   Mostly Cloudy
7:00 AM 78.8 °F - 77.0 °F 94% 29.77 in 6.2 mi East 1.2 mph - N/A   Mostly Cloudy
8:00 AM 82 °F - 79 °F 87% 29.79 in 19 mi SE 2.3 mph - -   Scattered Clouds
8:00 AM 82.4 °F 92.4 °F 78.8 °F 89% 29.77 in 6.2 mi SE 2.3 mph - N/A   Mostly Cloudy
9:00 AM 86.0 °F 101.9 °F 80.6 °F 84% 29.80 in 6.2 mi East 3.5 mph - N/A   Mostly Cloudy
10:00 AM 89.6 °F 108.2 °F 80.6 °F 75% 29.80 in 6.2 mi East 4.6 mph - N/A   Mostly Cloudy
11:00 AM 91 °F - 79 °F 61% 29.79 in 9 mi ESE 3.5 mph - -   Haze
11:00 AM 91.4 °F 107.2 °F 78.8 °F 66% 29.77 in 6.2 mi ESE 3.5 mph - N/A   Mostly Cloudy
12:00 PM 93.2 °F 107.2 °F 77.0 °F 59% 29.77 in 6.2 mi SE 4.6 mph - N/A   Mostly Cloudy
1:00 PM 93.2 °F 110.2 °F 78.8 °F 63% 29.74 in 6.2 mi SSW 3.5 mph - N/A   Mostly Cloudy
2:00 PM 96 °F - 81 °F 55% 29.70 in 11 mi WNW 8.1 mph - -   Haze
2:00 PM 95.0 °F 115.8 °F 80.6 °F 63% 29.68 in 6.2 mi WNW 8.1 mph - N/A   Mostly Cloudy
3:00 PM 95.0 °F 115.8 °F 80.6 °F 63% 29.65 in 6.2 mi NW 6.9 mph - N/A   Mostly Cloudy
4:00 PM 87.8 °F 99.7 °F 77.0 °F 70% 29.68 in 6.2 mi SSE 4.6 mph - N/A Thunderstorm Thunderstorm
5:00 PM 89 °F - 78 °F 64% 29.69 in 11 mi ESE 3.5 mph - - Thunderstorm Thunderstorm
5:00 PM 89.6 °F 104.7 °F 78.8 °F 70% 29.68 in 6.2 mi ESE 3.5 mph - N/A Thunderstorm Thunderstorm
6:00 PM 89.6 °F 104.7 °F 78.8 °F 70% 29.68 in 6.2 mi North 3.5 mph - N/A   Mostly Cloudy
7:00 PM 86.0 °F 101.9 °F 80.6 °F 84% 29.71 in 6.2 mi NNE 1.2 mph - N/A   Mostly Cloudy
8:00 PM 83 °F - 79 °F 84% 29.75 in 11 mi NE 1.2 mph - -   Partly Cloudy
8:00 PM 84.2 °F 96.1 °F 78.8 °F 84% 29.74 in 6.2 mi NE 1.2 mph - N/A   Mostly Cloudy
9:00 PM 82.4 °F 92.4 °F 78.8 °F 89% 29.74 in 6.2 mi East 1.2 mph - N/A   Mostly Cloudy
10:00 PM 82.4 °F 90.9 °F 77.0 °F 84% 29.77 in 6.2 mi East 5.8 mph - N/A   Mostly Cloudy
11:00 PM 81 °F - 78 °F 86% 29.79 in 11 mi ESE 3.5 mph - -   Scattered Clouds
11:00 PM 80.6 °F 87.1 °F 77.0 °F 89% 29.77 in 6.2 mi ESE 3.5 mph - N/A   Mostly Cloudy